W5TTY Weather Reports


time (UTC)temp
F
wind
direction
speed
knots
gust
knots
rain 1hr
in
rain 24hr
in
rain mn
in
humidity
%
barometer
mb
20260503013350 65 338 1.7 2.6 0.00 0.21 0.09 86 1019.4
20260503012832 65 338 1.7 3.5 0.00 0.21 0.09 86 1019.3
20260503012331 65 338 2.6 4.3 0.00 0.21 0.09 86 1019.3
20260503011818 66 338 2.6 4.3 0.00 0.21 0.09 86 1019.3
20260503011409 66 350 2.6 3.5 0.00 0.21 0.09 86 1019.3
20260503010827 67 351 2.6 2.6 0.00 0.21 0.09 86 1019.2
20260503010329 67 351 2.6 3.5 0.00 0.21 0.09 87 1019.2
20260503005834 68 351 1.7 3.5 0.00 0.21 0.09 87 1019.2
20260503005346 68 355 2.6 4.3 0.00 0.26 0.09 87 1019.1
20260503004831 68 355 3.5 4.3 0.00 0.26 0.09 87 1019.0
20260503004333 69 360 2.6 4.3 0.00 0.26 0.09 87 1019.0
20260503003841 69 360 2.6 5.2 0.00 0.26 0.09 87 1018.9
20260503003325 70 347 2.6 5.2 0.00 0.26 0.09 88 1018.9
20260503002830 70 5 2.6 4.3 0.00 0.26 0.09 88 1018.9
20260503002336 70 355 1.7 4.3 0.00 0.26 0.09 88 1018.9
20260503001820 70 355 2.6 4.3 0.00 0.26 0.09 88 1018.8
20260503001348 71 25 2.6 8.7 0.00 0.26 0.09 89 1018.8
20260503000834 71 346 2.6 8.7 0.00 0.26 0.09 89 1018.8
20260503000342 71 9 5.2 7.8 0.00 0.26 0.09 89 1018.8
20260502235824 71 18 4.3 10.4 0.00 0.26 0.09 89 1018.7
20260502235333 72 31 3.5 10.4 0.00 0.30 0.09 89 1018.7
20260502234837 72 319 4.3 10.4 0.00 0.30 0.09 90 1018.6
20260502234323 72 13 5.2 10.4 0.00 0.30 0.09 90 1018.6
20260502233829 72 349 5.2 10.4 0.00 0.30 0.09 90 1018.7
20260502233337 72 329 4.3 7.8 0.00 0.30 0.09 90 1018.6
20260502232844 72 71 4.3 8.7 0.00 0.30 0.09 91 1018.5
20260502232327 72 42 2.6 9.6 0.00 0.30 0.09 91 1018.5
20260502231832 72 9 4.3 10.4 0.00 0.30 0.09 91 1018.5
20260502231318 72 19 6.1 12.2 0.00 0.30 0.09 91 1018.5
20260502230851 72 9 7.0 12.2 0.00 0.30 0.09 91 1018.6
20260502230334 72 24 7.0 13.0 0.00 0.30 0.09 91 1018.5
20260502225842 72 5 7.8 13.0 0.00 0.30 0.09 91 1018.5
20260502225324 72 5 6.1 8.7 0.00 0.35 0.09 92 1018.6
20260502224829 72 38 4.3 9.6 0.00 0.35 0.09 92 1018.5
20260502224341 73 44 7.0 9.6 0.00 0.35 0.09 92 1018.5
20260502223826 72 9 4.3 9.6 0.00 0.35 0.09 92 1018.6
20260502223330 73 351 5.2 9.6 0.00 0.35 0.09 92 1018.6
20260502222835 73 26 6.1 10.4 0.00 0.35 0.09 92 1018.6
20260502222320 73 22 6.1 11.3 0.00 0.35 0.09 92 1018.6
20260502221827 73 360 7.0 11.3 0.00 0.35 0.09 93 1018.7
20260502221333 73 29 5.2 8.7 0.00 0.35 0.09 93 1018.7
20260502220819 73 360 3.5 7.8 0.00 0.35 0.09 93 1018.8
20260502220327 73 5 3.5 7.8 0.00 0.35 0.09 93 1018.8
20260502215832 73 355 5.2 8.7 0.00 0.35 0.09 93 1018.7
20260502215337 73 349 4.3 8.7 0.00 0.41 0.09 93 1018.7
20260502214825 73 360 4.3 8.7 0.00 0.41 0.09 93 1018.8
20260502214329 73 48 3.5 8.7 0.00 0.41 0.09 93 1018.8
20260502213817 73 340 2.6 7.0 0.00 0.41 0.09 93 1019.0
20260502213345 73 29 2.6 10.4 0.00 0.41 0.09 94 1019.1
20260502212831 73 342 6.1 13.0 0.00 0.41 0.09 94 1019.1
20260502212337 72 355 7.0 13.0 0.00 0.41 0.09 94 1019.1
20260502211844 72 288 4.3 13.0 0.00 0.41 0.09 94 1019.1
20260502211328 72 336 5.2 13.0 0.00 0.41 0.09 94 1019.1
20260502210818 72 336 5.2 8.7 0.00 0.41 0.09 94 1019.2
20260502210345 72 22 1.7 5.2 0.00 0.41 0.09 94 1019.3
20260502205829 72 67 3.5 10.4 0.00 0.41 0.09 94 1019.3
20260502205405 72 42 4.3 10.4 0.00 0.47 0.09 94 1019.5
20260502204829 72 44 4.3 12.2 0.00 0.47 0.09 95 1019.5
20260502204357 72 5 7.8 11.3 0.00 0.47 0.09 95 1019.4
20260502203824 72 24 4.3 7.8 0.00 0.47 0.09 95 1019.4
20260502203330 72 57 4.3 7.8 0.00 0.47 0.09 95 1019.4
20260502202326 72 70 2.6 9.6 0.00 0.47 0.09 95 1019.5
20260502201829 71 360 7.8 11.3 0.00 0.47 0.09 95 1019.6
20260502201335 71 28 3.5 12.2 0.00 0.47 0.09 95 1019.6
20260502200823 71 56 2.6 12.2 0.00 0.47 0.09 96 1019.6
20260502200324 71 340 6.1 13.0 0.00 0.47 0.09 96 1019.6
20260502195830 70 314 6.1 13.0 0.00 0.47 0.09 95 1019.6
20260502195402 71 42 3.5 10.4 0.00 0.55 0.09 96 1019.7
20260502194829 70 52 2.6 10.4 0.00 0.55 0.09 96 1019.7
20260502194329 71 52 2.6 10.4 0.00 0.55 0.09 96 1019.8
20260502193833 70 17 4.3 8.7 0.00 0.55 0.09 96 1019.9
20260502193317 70 321 2.6 8.7 0.00 0.55 0.09 96 1019.9
20260502192822 70 324 6.1 11.3 0.00 0.55 0.09 96 1019.9
20260502192326 70 355 7.8 11.3 0.00 0.55 0.09 96 1020.1
20260502191841 70 69 5.2 13.0 0.00 0.55 0.09 96 1020.0
20260502191327 70 329 5.2 13.0 0.00 0.55 0.09 96 1020.1
20260502190829 69 44 6.1 11.3 0.00 0.55 0.09 96 1020.2
20260502190318 70 5 4.3 10.4 0.00 0.55 0.09 96 1020.2
20260502185824 70 28 3.5 12.2 0.00 0.55 0.09 96 1020.3
20260502185327 69 309 7.8 13.0 0.00 0.64 0.09 96 1020.4
20260502184834 69 355 7.0 14.8 0.00 0.64 0.09 96 1020.5
20260502184346 69 360 6.1 14.8 0.00 0.64 0.09 96 1020.6
20260502183850 68 355 5.2 11.3 0.00 0.64 0.09 96 1020.7
20260502183333 69 55 4.3 10.4 0.00 0.64 0.09 96 1020.7
20260502182819 69 24 4.3 13.0 0.00 0.64 0.09 96 1020.8
20260502182324 69 355 7.0 13.0 0.00 0.64 0.09 96 1021.0
20260502181826 68 320 7.8 12.2 0.00 0.64 0.09 96 1021.0
20260502181338 68 12 5.2 12.2 0.00 0.64 0.09 96 1021.0
20260502180842 68 360 5.2 11.3 0.00 0.64 0.09 96 1021.1
20260502180327 68 325 3.5 12.2 0.00 0.64 0.09 96 1021.1
20260502170321 66 325 6.1 11.3 0.00 0.73 0.09 96 1021.7
20260502164318 64 20 4.3 11.3 0.00 0.84 0.09 97 1021.8
20260502163831 64 341 6.1 11.3 0.00 0.84 0.09 97 1021.9
20260502163337 64 343 5.2 10.4 0.00 0.84 0.09 97 1021.8
20260502162824 64 35 4.3 8.7 0.00 0.84 0.09 97 1021.7
20260502162324 63 13 2.6 12.2 0.00 0.84 0.09 97 1021.7
20260502161851 63 12 8.7 12.2 0.00 0.84 0.09 97 1021.8
20260502161335 63 324 6.1 10.4 0.00 0.84 0.09 97 1021.8
20260502160820 62 11 5.2 11.3 0.00 0.84 0.09 97 1021.8
20260502160352 62 9 5.2 11.3 0.00 0.84 0.09 96 1021.8
20260502152326 61 12 4.3 8.7 0.00 0.96 0.09 97 1021.8
20260502151832 60 360 3.5 8.7 0.00 0.96 0.09 97 1021.8
20260502151406 60 360 5.2 9.6 0.00 0.96 0.09 97 1021.8
20260502150827 60 320 4.3 10.4 0.00 0.96 0.09 97 1021.8
20260502150330 60 344 7.0 11.3 0.00 0.96 0.09 97 1021.8
20260502130332 52 323 0.9 4.3 0.00 1.20 0.09 96 1020.5
20260502045820 52 54 5.2 9.6 0.03 1.56 0.00 95 1017.2
20260502045323 52 46 5.2 9.6 0.02 1.57 1.55 95 1017.3
20260502044834 52 39 3.5 7.8 0.02 1.57 1.55 95 1017.3
20260502044340 52 38 4.3 7.0 0.03 1.57 1.55 95 1017.3
20260502043827 52 5 3.5 7.0 0.03 1.57 1.55 95 1017.2
20260502043333 52 19 3.5 7.0 0.03 1.57 1.55 95 1017.3
20260502042822 52 13 3.5 7.0 0.02 1.56 1.54 95 1017.3
20260502042329 52 5 2.6 7.0 0.02 1.56 1.54 95 1017.4
20260502041832 52 355 3.5 7.8 0.03 1.56 1.54 95 1017.3
20260502041318 52 63 4.3 7.8 0.03 1.56 1.54 95 1017.3
20260502040820 52 35 4.3 8.7 0.03 1.56 1.54 95 1017.3
20260502040332 52 29 4.3 9.6 0.02 1.55 1.53 95 1017.3
20260502035841 52 45 5.2 9.6 0.03 1.55 1.53 95 1017.4
20260502035325 52 55 4.3 9.6 0.03 1.55 1.53 95 1017.4
20260502034849 52 360 4.3 10.4 0.03 1.55 1.53 95 1017.3
20260502034343 52 48 4.3 10.4 0.02 1.54 1.52 95 1017.3
20260502033818 52 67 5.2 11.3 0.03 1.54 1.52 95 1017.3
20260502033330 51 45 5.2 11.3 0.03 1.54 1.52 95 1017.4
20260502032833 51 46 7.8 11.3 0.03 1.54 1.52 95 1017.4
20260502032334 51 61 6.1 13.9 0.03 1.54 1.52 95 1017.4
20260502031820 51 53 3.5 13.9 0.03 1.53 1.51 95 1017.3
20260502031326 51 61 5.2 11.3 0.03 1.53 1.51 95 1017.2
20260502030900 51 60 4.3 12.2 0.03 1.53 1.51 95 1017.1
20260502030340 51 43 7.0 13.9 0.03 1.53 1.51 95 1017.2
20260502025825 51 44 6.1 14.8 0.03 1.52 1.50 95 1017.1
20260502025325 51 48 7.8 14.8 0.03 1.52 1.50 95 1016.9
20260502024829 51 45 6.1 11.3 0.03 1.52 1.50 95 1016.9
20260502024343 51 33 5.2 11.3 0.04 1.52 1.50 95 1016.7
20260502023844 51 65 4.3 11.3 0.03 1.51 1.49 95 1016.6
20260502023328 51 42 7.0 12.2 0.03 1.51 1.49 95 1016.5
20260502022854 51 64 7.0 17.4 0.03 1.51 1.49 95 1016.5
20260502022336 52 61 7.8 17.4 0.04 1.51 1.49 95 1016.3
20260502021822 52 31 7.8 14.8 0.03 1.50 1.48 95 1016.2
20260502021325 52 15 6.1 12.2 0.03 1.50 1.48 95 1016.0
20260502020835 52 5 7.0 17.4 0.04 1.50 1.48 95 1016.0
20260502020342 52 19 8.7 18.2 0.04 1.50 1.48 95 1015.8
20260502015829 53 41 9.6 18.2 0.03 1.49 1.47 95 1015.6
20260502015329 53 5 7.0 14.8 0.04 1.49 1.47 95 1015.8
20260502014850 53 11 7.8 13.9 0.04 1.49 1.47 95 1015.6
20260502014333 53 360 7.0 13.9 0.03 1.48 1.46 95 1015.6
20260502013844 53 61 7.8 13.0 0.04 1.48 1.46 95 1015.3